STARLINK-2000 (47595 NORAD) Tracking and Keplerian Element Data

This shows tracking and keplerian element data for the satellite.

Feedback or suggestion? Click here.




ElementValue
Catalog47595
NameSTARLINK-2000
Epoch Orbit454
Epoch Day60.16668981
Epoch Year2021
RAAN1.7817
Inclination53.0525
Eccentricity0.0001211
Argument of Perigee65.7728
Mean Anonmoly212.6475
Mean Motion15.58146778
Decay Rate-0.00948127
L11 47595U 21009AZ 21060.16668981 -.00948127 00000-0 -13648-1 0 9992
L22 47595 53.0525 1.7817 0001211 65.7728 212.6475 15.58146778 4548

Live tracking and technical data element details for STARLINK-2000 (NORAD 47595). STARLINK-2000 can be tracked NOW for your location showing map with azimuth and elevation plus other details from your city location.

Track the satellite on the map from your city or location and see movement details for azimuth, elevation, latitude, longitude, range, height, and movement on the map or in text.







IsCatalogInMostPopularTable: catalog: 47595, numindb: 4
Update: records affected: 1



GetName: 47595 STARLINK-2000

Hit Count: updated at: Mon, 01 Mar 2021 15:19:40 GMT